EST,Max TemperatureF,Mean TemperatureF,Min TemperatureF,Max Dew PointF,MeanDew PointF,Min DewpointF,Max Humidity, Mean Humidity, Min Humidity, Max Sea Level PressureIn, Mean Sea Level PressureIn, Min Sea Level PressureIn, Max VisibilityMiles, Mean VisibilityMiles, Min VisibilityMiles, Max Wind SpeedMPH, Mean Wind SpeedMPH, Max Gust SpeedMPH,PrecipitationIn, CloudCover, Events, WindDirDegrees
2014-2-1,39,29,19,26,20,16,86,64,49,30.27,30.12,29.92,10,10,8,16,7,23,0.00,6,Rain-Snow,141
2014-2-2,39,32,26,33,28,23,96,85,58,30.20,30.02,29.86,10,6,1,10,8,,0.00,8,Rain-Snow,329
2014-2-3,26,22,15,22,16,10,85,77,69,30.38,30.25,30.15,10,9,4,10,5,,0.00,8,Snow,356
2014-2-4,25,17,9,16,11,6,92,74,53,30.50,30.41,30.24,10,10,10,7,1,,0.00,4,Snow,41
2014-2-5,26,20,14,23,19,9,96,88,72,30.23,29.94,29.65,10,2,0,20,5,23,0.15,8,Fog-Snow,52
2014-2-6,18,9,0,9,5,-5,92,79,59,30.35,30.27,30.12,10,9,3,15,7,,0.00,6,Snow,347
2014-2-7,23,12,0,9,3,-7,88,68,39,30.32,30.25,30.15,10,10,4,14,5,,0.00,4,Snow,277
2014-2-8,20,6,-9,3,-3,-14,83,66,42,30.38,30.29,30.22,10,10,10,5,1,,0.00,3,,313
2014-2-9,18,7,-4,16,8,-9,93,82,62,30.22,30.07,29.92,10,7,1,18,4,,0.00,6,Snow,163
2014-2-10,19,14,10,12,7,1,85,73,59,30.32,30.16,30.02,10,7,1,15,11,22,0.00,7,Snow,300
2014-2-11,14,10,3,7,2,-1,88,71,54,30.54,30.40,30.24,10,9,4,15,8,18,0.00,6,Snow,309
2014-2-12,22,8,-6,4,-3,-12,85,64,38,30.55,30.42,30.19,10,10,10,15,5,24,0.00,1,,136
2014-2-13,23,20,17,21,16,6,96,84,59,30.23,29.79,29.36,10,4,1,18,8,23,0.02,7,Snow,318
2014-2-14,32,26,21,23,20,18,96,84,57,29.76,29.47,29.32,10,6,1,21,14,26,0.00,8,Snow,309
2014-2-15,27,22,16,23,20,11,96,84,69,29.93,29.81,29.71,10,5,1,24,6,31,0.00,8,Snow,342
2014-2-16,15,12,10,11,8,3,88,81,67,30.24,30.03,29.89,10,6,1,20,13,29,0.00,8,Snow,308
2014-2-17,24,8,-6,7,1,-11,84,62,40,30.48,30.33,30.09,10,10,10,20,7,24,0.00,1,,5
2014-2-18,32,25,18,24,16,5,88,72,44,30.08,29.96,29.84,10,7,1,25,18,36,0.00,7,Snow,183
2014-2-19,41,34,26,35,28,19,89,77,60,30.11,29.81,29.62,10,10,7,25,11,31,0.02,5,Rain,186
2014-2-20,43,32,21,34,26,19,93,76,45,30.21,30.07,29.84,10,9,2,16,6,28,0.19,4,Rain-Snow,150
2014-2-21,46,41,36,43,32,20,100,72,49,29.82,29.72,29.61,10,9,2,25,14,30,0.15,6,Rain,204
2014-2-22,46,39,32,26,19,16,58,44,33,29.97,29.90,29.84,10,10,10,26,12,36,0.00,2,,250
2014-2-23,45,36,25,29,23,14,75,59,33,29.99,29.94,29.87,10,10,10,14,8,18,0.00,5,,266
2014-2-24,25,21,16,18,10,7,86,63,53,30.10,29.98,29.90,10,9,1,25,15,32,0.00,7,Snow,290
2014-2-25,20,16,12,12,8,4,86,70,52,30.08,30.02,29.94,10,9,4,17,8,25,0.00,7,Snow,286
2014-2-26,17,10,3,10,1,-7,86,62,37,29.99,29.89,29.80,10,9,2,21,10,28,0.00,5,Snow,295
2014-2-27,21,12,3,12,-1,-10,79,60,44,30.11,29.75,29.54,10,8,1,26,13,38,0.00,5,Snow,253
2014-2-28,16,8,1,-1,-6,-10,76,55,38,30.41,30.32,30.14,10,9,3,16,9,22,0.00,3,Snow,267